weather.gov     
National Weather Service

Regional Weather Roundup
NWS Homepage
This page is being discontinued on March 12, 2014.
The same data is available at this site. Please update your bookmarks.
Thank you, and we apologize for the inconvenience.
Please send an email to SR-SRH.Webmaster@noaa.gov with any concerns.


Current Version
Previous Version:    01  02  03  04  05  06  07  08  09  10  11  12  13  14  15  16  17  18  19  20  21  22  23  24  25  26  27  
[Printable]
176
ASUS44 KHUN 200210
RWRHUN

WEATHER ROUNDUP FOR THE TENNESSEE VALLEY
NATIONAL WEATHER SERVICE HUNTSVILLE AL
800 PM CST FRI DEC 19 2014

ALZ001>004-200300-
NORTHWEST ALABAMA

CITY           SKY/WX    TMP DP  RH WIND       PRES   REMARKS
COURTLAND HCN    N/A     39 N/A N/A NE5         N/A
RUSSELLVILLE     N/A     39 N/A N/A MISG        N/A
SHOALS AIRPORT CLOUDY    41  31  67 E5        30.22S
SHOALS TVA RES   N/A     41 N/A N/A MISG        N/A
$$

ALZ005>007-016-200300-
NORTH CENTRAL ALABAMA

CITY           SKY/WX    TMP DP  RH WIND       PRES   REMARKS
DECATUR AP     CLOUDY    40  29  64 NE5       30.22R
HUNTSVILLE AP  LGT RAIN  42  30  62 NE7       30.22R
HUN NWS/UAH      N/A     40  27  60 NE5         N/A
MERIDIANVILLE  CLOUDY    37  27  65 N5        30.21R WCI  34
REDSTONE ARSN  LGT RAIN  39  30  70 NE6       30.21R WCI  35
VINEMONT AP    LGT RAIN  38  34  84 CALM      30.20F
$$

ALZ008>010-200300-
NORTHEAST ALABAMA

CITY           SKY/WX    TMP DP  RH WIND       PRES   REMARKS
ALBERTVILLE    DRIZZLE   41  37  87 CALM      30.18R
FORT PAYNE     CLOUDY    41  32  70 CALM      30.18R
SCOTTSBORO AP  CLOUDY    41  32  70 CALM      30.21R
VALLEY HEAD      N/A     39 N/A N/A MISG        N/A
$$

TNZ076-096-097-200300-
SOUTHEASTERN MIDDLE TENNESSEE

CITY           SKY/WX    TMP DP  RH WIND       PRES   REMARKS
TULLAHOMA      CLEAR     36  27  69 NE5       30.20R WCI  32
WINCHESTER     CLOUDY    37  28  70 N7        30.20R WCI  32
$$

...SURROUNDING SITES...

CITY           SKY/WX    TMP DP  RH WIND       PRES   REMARKS
ATLANTA        CLOUDY    46  32  58 NW8       30.15R
ANNISTON       LGT RAIN  43  38  82 SW3       30.20R
BIRMINGHAM     LGT RAIN  42  39  89 NE3       30.20F
CHATTANOOGA    CLOUDY    43  29  57 N6        30.18R
CORINTH        CLOUDY    41  34  75 CALM      30.22S
DALTON         CLOUDY    41  32  70 CALM      30.16S
GADSDEN        CLOUDY    43  36  75 NW5       30.21R
GOLDEN TRNGL   CLOUDY    43  39  87 E5        30.18S
HALEYVILLE     LGT RAIN  36  35  96 CALM      30.21F
JACKSON TN     CLOUDY    40  30  67 CALM      30.23R
LEWISBURG      CLOUDY    36  28  73 NE3       30.22S
MEMPHIS        CLOUDY    43  34  70 NE7       30.23R
MURFREESBORO   FAIR      37  29  73 NE7       30.21F WCI  31
NASHVILLE      CLOUDY    38  28  67 NE9       30.24F WCI  31
OXFORD MS      CLOUDY    39  36  87 NE8       30.24R WCI  34
ROME           CLOUDY    43  33  68 W5        30.18R
SAVANNAH       CLOUDY    39  30  70 N5        30.22R
TUPELO         CLOUDY    41  37  86 N9        30.23R
TUSCALOOSA     LGT RAIN  44  42  93 CALM      30.20F
$$

...GULF COAST WEATHER...

CITY           SKY/WX    TMP DP  RH WIND       PRES   REMARKS
GULFPORT       LGT RAIN  48  46  93 NE10      30.09S FOG
PASCAGOULA     LGT RAIN  48  47  96 NE9       30.11S
MOBILE         RAIN      47  46  97 NE9       30.13R FOG
GULF SHORES    CLOUDY    48  46  91 NE5       30.13R
PENSACOLA      CLOUDY    51  47  86 NE6       30.13R
DESTIN         CLOUDY    52  49  89 E5        30.14R
APPALACHICOLA  LGT RAIN  54  48  80 NE7       30.11R
$$





U.S. Dept. of Commerce
NOAA National Weather Service
1325 East West Highway
Silver Spring, MD 20910
E-mail: w-nws.webmaster@noaa.gov
Page last modified: May 16, 2007
NATIONAL WEATHER SERVICE: for Safety, for Work, for Fun - FOR LIFE